Weather in Belozyorki

Russia / Samara Oblast     53°26′25″N   50°21′45″E
temp.,
°C
wind,
m/s
gust,
m/s
humid.,
%
clouds,
%
prec.,
mm/h
press.,
hPa
HPBL,
m
9 march, tue
tue901:00−7wsw5138666 0.0 1004399
04:00−10wsw479042 0.0 1007124
07:00−13w239123 0.0 100926
10:00−10sw008751 0.0 101096
13:00−6ene118270 0.0 1010339
16:00−6ne228685 0.0 1009316
19:00−11n2392100 0.0 100821
22:00−15nw349667 0.0 100947
10 march, wed
wed1001:00−16nw369694 0.0 1009103
04:00−17wnw359795 0.0 101094
07:00−16wnw5109398 0.1 1011307
10:00−15nw6109198 0.1 1012502
13:00−15nw71090100 0.0 1014586
16:00−16nw71090100 0.1 1015615
19:00−19nw61192100 0.1 1017527
22:00−19nnw51292100 0.1 1019511
11 march, thu
thu1101:00−23nw499526 0.0 1021167
04:00−26nw479633 0.0 1023113
07:00−27nw349726 0.0 102475
10:00−21nw579437 0.0 1025326
13:00−17wnw588946 0.0 1026429
16:00−15wnw589057 0.0 1026512
19:00−19wnw349597 0.0 102751
22:00−20wnw339861 0.0 102825
12 march, fri
fri1201:00−20w2310046 0.0 102922
04:00−20w3310062 0.0 103030
07:00−20wnw3310081 0.0 103131
10:00−14wnw359251 0.0 1033226
13:00−9wnw35870 0.0 1033345
16:00−8wnw36830 0.0 1032390
19:00−12w33900 0.0 103325
22:00−14wsw23881 0.0 103425
13 march, sat
sat1301:00−15wsw23913 0.0 103527
04:00−15w229114 0.0 103524
07:00−16w229179 0.0 103622
10:00−11wsw138557 0.0 1036202
13:00−6wsw247487 0.0 1036555
16:00−6sw348191 0.0 1035509
19:00−13ssw349139 0.0 103437
22:00−16ssw239344 0.0 103427